Location: ???????
(55.6894°N, 38.1128°E)
Time: 06:15:15
(UTC+00:00)

Daily predictions for brighter satellites

Satellite Brightness Start Highest point End
(mag) Time Altitude Azimuth Time Altitude Azimuth Time Altitude Azimuth
Cosmos 1943 Rocket 3.1 13:33:27 10° NNW 13:38:18 28° NNE 13:43:06 10° E
SL-4 R/B 3.0 13:35:44 10° SW 13:39:06 35° SSE 13:42:43 10° E
Cosmos 2219 Rocket 2.5 13:34:00 10° S 13:39:27 53° ESE 13:44:56 10° NE
Cosmos 1697 Rocket 4.3 13:35:44 10° WNW 13:39:55 21° NNW 13:44:08 10° NNE
Cosmos 1340 3.5 13:36:50 10° NNW 13:40:34 55° W 13:44:16 10° S
NOSS 2-2 (D) 3.9 13:37:07 10° WSW 13:40:55 56° NNW 13:45:41 10° NE
Cosmos 1269 Rocket 4.1 13:38:05 10° SSW 13:43:25 83° ESE 13:48:45 10° NNE
YAOGAN 1 4.4 13:42:47 10° ENE 13:44:30 12° NE 13:46:15 10° NNE
Cosmos 1346 Rocket 3.6 13:40:45 10° NNW 13:44:40 57° W 13:48:36 10° S
SL-16 R/B 3.1 13:39:29 10° WSW 13:44:51 42° NW 13:50:15 10° NNE
Cosmos 1733 Rocket 3.1 13:41:27 10° N 13:45:48 59° ENE 13:50:10 10° SSE
Cosmos 1689 Rocket 3.0 13:44:11 10° NNE 13:46:58 32° E 13:49:44 10° SSE
Cosmos 1812 3.7 13:46:55 10° SSE 13:50:16 28° E 13:53:38 10° NNE
Cosmos 1500 3.2 13:46:39 10° N 13:50:23 55° ENE 13:54:04 10° SSE
Cosmos 1782 2.9 13:48:02 10° SSW 13:52:02 84° WNW 13:56:02 10° N
SJ-7 4.5 13:48:08 10° SSE 13:52:13 58° ENE 13:56:16 10° N
NOSS 3-1 (C) 4.1 13:46:26 10° WNW 13:52:56 51° NNE 14:00:37 10° E
Cosmos 921 Rocket 3.6 13:50:52 10° NNW 13:54:48 34° NE 13:58:46 10° ESE
Cosmos 1484 Rocket 4.0 13:51:01 10° S 13:54:55 49° W 13:58:51 10° NNW
USA 267 3.6 13:56:03 10° ESE 14:02:35 70° SSW 14:09:08 10° WNW
Cosmos 1980 4.4 13:58:01 10° S 14:03:10 37° ESE 14:08:18 10° NE
USA 229 DEB 4.0 13:56:32 10° WNW 14:03:23 53° NNE 14:10:36 10° E
USA 229 4.0 13:56:38 10° WNW 14:03:28 53° NNE 14:10:40 10° E
CZ-4 R/B 2.8 14:01:48 10° E 14:04:11 16° NE 14:06:35 10° NNE
Cosmos 1315 Rocket 3.0 14:01:02 10° SSW 14:05:04 79° WNW 14:09:11 10° NNE
Meteor 1-10 Rocket 4.3 13:59:38 10° S 14:05:07 63° E 14:10:44 10° NNE
AQUARIUS 4.4 14:03:46 10° SE 14:08:05 48° ENE 14:12:25 10° N
Cosmos 1400 Rocket 4.4 14:04:36 10° SW 14:08:21 34° WNW 14:12:03 10° N
Cosmos 2297 3.7 14:02:47 10° NNW 14:08:31 65° NE 14:14:09 10° SE
NOSS 3-1 (A) 4.1 14:02:08 10° WNW 14:08:36 49° NNE 14:16:11 10° E
NOSS 3-4 (A) 3.6 14:03:31 10° SW 14:09:39 86° NW 14:15:52 12° NE
NOSS 3-4 (C) 3.6 14:03:37 10° SW 14:09:45 86° NW 14:15:58 12° NE
CZ-4B R/B 1.6 14:07:45 10° NNE 14:11:17 77° WNW 14:14:45 10° SSW
Lacrosse 4 Rocket 3.1 14:08:51 10° NNW 14:11:37 17° NNE 14:13:40 13° NE
Cosmos 2251 Rocket 3.8 14:07:40 10° S 14:12:46 50° ESE 14:17:51 10° NE
Envisat 3.4 14:10:09 10° SE 14:14:50 39° ENE 14:19:32 10° N
Meteor 1-11 Rocket 3.9 14:09:18 10° NNW 14:15:20 87° WSW 14:21:18 10° S
SMAP 3.1 14:12:24 10° SSE 14:16:59 62° ENE 14:21:37 10° N
Cosmos 1975 4.1 14:14:05 10° NNE 14:17:04 20° ENE 14:20:01 10° ESE
Cosmos 1441 Rocket 3.6 14:13:41 10° N 14:17:18 38° ENE 14:20:51 10° SE
NOSS 2-2 (C) 4.3 14:15:08 10° W 14:18:57 42° NNW 14:22:53 14° NE
Cosmos 1782 Rocket 4.1 14:15:55 10° N 14:19:57 35° ENE 14:23:56 10° SE
Meteor 1-27 Rocket 4.0 14:15:00 10° S 14:20:38 55° E 14:26:24 10° NNE
Meteor 1-28 Rocket 4.0 14:18:44 10° N 14:22:24 51° WNW 14:26:04 10° SW
H-2A R/B 2.6 14:20:00 10° SSE 14:23:38 58° ENE 14:27:16 10° N
NOAA 12 4.2 14:21:42 10° SE 14:26:50 54° ENE 14:31:59 10° N
PSLV R/B 4.2 14:23:14 10° NNE 14:27:16 46° E 14:31:15 10° S
ALOS 3.8 14:24:17 10° SSW 14:28:40 40° W 14:33:07 10° NNW
Genesis I 4.1 14:24:52 10° NW 14:28:41 51° SW 14:32:26 10° SSE
COSMOS 2428 2.8 14:23:54 10° SW 14:29:36 82° NW 14:35:04 12° NNE
Okean 2 Rocket 4.1 14:27:25 10° N 14:31:08 25° ENE 14:34:52 10° ESE
Cosmos 1862 Rocket 3.5 14:28:29 10° S 14:32:50 70° E 14:37:16 10° NNE
Cosmos 1666 2.5 14:30:40 10° N 14:34:26 70° ENE 14:38:09 10° SSE
Sich 1 Rocket 4.0 14:30:38 10° N 14:34:46 37° ENE 14:38:51 10° SE
STARLINK-67 3.4 14:33:52 10° W 14:36:33 46° S 14:38:17 18° ESE
Cosmos 1703 Rocket 4.3 14:32:34 10° SSE 14:36:36 34° E 14:39:53 14° NNE
COSMOS 2455 3.9 14:32:00 10° W 14:37:32 36° NNW 14:42:08 14° NE
Cosmos 292 Rocket 4.2 14:33:10 10° NNW 14:38:02 67° WSW 14:42:50 10° SSE
H-2A R/B 4.0 14:39:26 11° NNE 14:39:26 11° NNE 14:39:47 10° NNE
BREEZE-M R/B 4.3 14:33:35 10° WSW 14:39:33 40° SSW 14:42:40 11° ESE
CZ-4B R/B 4.5 14:35:54 10° S 14:41:01 43° W 14:46:14 10° NNW
Cosmos 2344 4.2 14:33:03 10° WNW 14:41:29 64° NNE 14:52:55 10° ESE
Cosmos 2278 Rocket 4.1 14:39:54 10° NW 14:44:56 34° WSW 14:49:57 10° S
STARLINK-46 3.2 14:45:01 10° WSW 14:47:33 43° S 14:48:28 29° ESE
ATLAS 2AS CENTAUR R/B 3.3 14:39:42 10° WSW 14:47:42 63° NNW 14:53:43 18° NE
Cosmos 2360 Rocket 3.4 14:45:08 10° WSW 14:50:17 34° NW 14:55:06 12° NNE
Cosmos 1092 Rocket 4.0 14:44:27 10° S 14:50:35 58° E 14:56:42 10° NNE
Okean O Rocket 3.6 14:47:26 10° SSW 14:51:18 31° W 14:55:12 10° NNW
Cosmos 1867 3.7 14:47:23 10° NW 14:52:53 81° SW 14:58:20 10° SE
RESURS DK-1 2.9 14:49:55 10° SW 14:53:58 54° NW 14:56:51 18° NNE
SeaSat 1 3.6 14:53:21 22° NE 14:54:30 24° NNE 14:58:25 10° NNW
Cosmos 2369 Rocket 2.3 14:50:38 10° NNW 14:56:08 52° NE 15:01:40 10° ESE
Ariane Rocket 3.9 14:57:38 25° ENE 14:58:12 26° NE 15:02:20 10° N
Cosmos 1980 Rocket 4.0 14:54:29 10° NW 14:58:20 18° N 15:01:14 13° NNE
YAOGAN 6 2.7 14:55:51 10° SE 14:59:20 50° ENE 15:02:52 10° N
Cosmos 2242 Rocket 3.6 14:54:46 10° S 14:59:21 81° E 15:03:58 10° NNE
Cosmos 1536 3.9 14:56:49 10° NNW 15:00:41 46° W 15:04:31 10° SSW
Cosmos 1656 Rocket 4.3 14:56:27 10° NNW 15:01:25 34° NE 15:03:20 27° ENE
Cosmos 1908 Rocket 4.0 14:58:31 10° NNW 15:02:55 65° W 15:07:14 10° S
Cosmos 1763 Rocket 4.2 15:00:01 10° NNW 15:04:32 30° NE 15:05:26 29° ENE
CZ-4 R/B 4.5 15:01:24 10° SE 15:05:28 55° ENE 15:09:34 10° N
SL-16 R/B 2.6 15:01:33 10° S 15:06:52 42° ESE 15:09:17 28° ENE
USA 215 3.5 15:04:26 24° ENE 15:08:28 58° SSE 15:14:54 10° SW
Cosmos 1743 2.6 15:04:57 10° N 15:08:50 73° ENE 15:12:43 10° SSE
COSMO-SKYMED 1 3.2 15:09:54 34° E 15:10:15 34° E 15:14:14 10° SSE
FengYun 1-2 T 4.1 15:04:51 10° SSE 15:10:19 74° ENE 15:15:52 10° NNW
Okean 1-7 3.1 15:06:49 10° S 15:11:05 57° E 15:13:33 24° NNE
Cosmos 1300 Rocket 3.9 15:08:54 10° N 15:12:58 38° ENE 15:13:26 37° E
Lacrosse 5 rocket 1.2 15:09:08 10° WSW 15:13:22 84° SSE 15:14:37 43° ENE
Okean-O 2.8 15:10:08 10° S 15:14:34 74° WSW 15:19:02 10° NNW
Cosmos 2237 Rocket 2.2 15:09:23 10° SW 15:15:07 87° WNW 15:18:56 22° NNE
SL-4 R/B 2.6 15:14:40 10° WSW 15:18:19 46° S 15:19:46 31° SE
Cosmos 1190 Rocket 4.3 15:13:50 10° S 15:18:43 43° ESE 15:20:04 35° ENE
S3M 4.0 15:12:40 10° N 15:18:49 56° ENE 15:24:51 10° SSE
YAOGAN 1 2.5 15:15:31 10° SSE 15:19:46 57° ENE 15:24:02 10° N
Cosmos 2322 Rocket 4.0 15:15:29 10° WNW 15:19:46 21° NNW 15:23:02 14° NNE
Aureole 1 Rocket 2.2 15:17:26 10° SSW 15:20:31 74° ESE 15:20:55 64° ENE
Cosmos 2333 Rocket 3.1 15:15:45 10° WSW 15:21:16 45° NW 15:25:25 17° NNE
STARLINK-52 4.4 15:19:16 10° SW 15:22:21 29° SSE 15:22:28 29° SSE
Cosmos 1943 Rocket 2.1 15:17:12 10° NNW 15:22:54 81° NE 15:28:32 10° SE
STARLINK-60 4.0 15:20:00 10° SW 15:23:07 36° SSE 15:23:16 36° SSE
COBE Rocket 3.8 15:18:29 10° NNE 15:23:07 80° WNW 15:27:49 10° SSW
Cosmos 2219 Rocket 3.1 15:18:13 10° WSW 15:23:35 43° NW 15:27:35 18° NNE
ATLAS 5 CENTAUR R/B 2.7 15:22:12 10° SSW 15:23:05 20° S 15:23:05 20° S
Nadezhda 4 Rocket 4.4 15:18:44 10° SSW 15:25:01 64° WNW 15:31:18 10° N
Okean 1 3.3 15:21:27 10° S 15:25:20 54° E 15:25:27 53° E
Cosmos 1812 4.3 15:22:25 10° SW 15:26:00 35° WNW 15:29:35 10° N
Cosmos 1697 Rocket 4.4 15:22:21 10° NW 15:26:04 17° N 15:27:09 17° NNE
Cosmos 1428 Rocket 4.4 15:20:04 10° S 15:26:12 66° E 15:32:26 10° NNE
Uosat 12 SS-18 rocket 4.4 15:22:13 10° NW 15:27:19 73° SW 15:30:25 20° SE
Cosmos 614 Rocket 3.9 15:23:49 10° S 15:28:48 58° ESE 15:30:20 40° NE
Cosmos 1553 Rocket 3.9 15:23:47 10° N 15:30:12 80° ENE 15:36:38 10° SSE
STARLINK-29 4.3 15:27:06 10° SW 15:30:12 33° SSE 15:30:12 33° SSE
SL-16 R/B 4.0 15:26:24 10° WNW 15:30:30 20° NNW 15:33:12 15° NNE
Cosmos 921 Rocket 4.4 15:29:09 10° NW 15:33:09 39° WSW 15:37:11 10° S
Meteor 2-4 Rocket 4.5 15:28:38 10° SSE 15:32:47 32° ESE 15:32:47 32° ESE
Cosmos 841 Rocket 4.4 15:29:33 10° NNW 15:33:30 30° NNE 15:33:30 30° NNE
Cosmos 1174 4.0 15:33:58 10° SSW 15:38:22 55° SE 15:38:22 55° SE
CZ-4 R/B 1.2 15:34:52 10° SSE 15:38:44 82° WSW 15:42:37 10° NNW
Cosmos 405 Rocket 4.1 15:36:36 10° N 15:38:17 25° N 15:38:17 25° N
CSL-04 Rocket 3.5 15:35:35 10° SSE 15:40:52 84° ENE 15:46:15 10° NNW
Meteor 1-19 Rocket 4.2 15:36:13 10° S 15:41:31 53° E 15:42:37 45° ENE
Cosmos 2151 Rocket 3.5 15:38:16 10° N 15:42:24 62° NE 15:42:24 62° NE
NOSS 0 Rocket 4.4 15:36:45 10° SW 15:42:54 60° NW 15:46:39 25° NNE
CZ-4B R/B 4.5 15:41:42 10° NNW 15:43:01 12° NW 15:44:20 10° WNW
NOSS 3-1 (C) 3.9 15:37:25 10° NW 15:44:33 89° SW 15:50:31 21° SE
Exosat Rocket 4.2 15:40:40 10° SW 15:45:32 51° NW 15:48:33 24° NNE
Cosmos 2026 Rocket 3.9 15:40:13 10° S 15:46:17 86° W 15:52:26 10° N
Cosmos 1980 4.2 15:41:32 10° SW 15:47:06 57° NW 15:50:10 27° NNE
Meteor 1-12 Rocket 4.2 15:45:21 10° NNW 15:51:18 76° ENE 15:57:05 10° SSE
Lacrosse 4 Rocket 2.7 15:47:29 10° NNW 15:49:59 29° N 15:49:59 29° N
Cosmos 1140 Rocket 3.4 15:47:41 10° S 15:52:44 62° ESE 15:52:55 61° E
Envisat 4.2 15:49:01 10° S 15:53:51 43° W 15:58:44 10° NNW
Cosmos 1975 3.3 15:49:58 10° NNW 15:53:56 61° W 15:57:53 10° S
USA 229 DEB 3.9 15:47:44 10° NW 15:54:53 81° SW 15:59:43 24° SE
USA 229 3.9 15:47:51 10° NW 15:54:59 81° SW 15:59:45 25° SE
Cosmos 468 Rocket 3.8 15:52:21 10° NNW 15:57:33 72° ENE 15:58:05 66° ESE
SKYMED 2 3.4 15:58:34 88° ESE 15:58:34 88° ESE 16:02:55 10° SSW
Cosmos 2263 4.2 15:53:58 10° NW 15:59:48 89° SW 16:02:22 35° SSE
NOSS 3-1 (A) 3.9 15:53:13 10° NW 16:00:20 85° NE 16:04:03 36° SE
NOSS 3-4 (A) 4.2 15:55:11 10° W 16:01:15 47° NNW 16:03:18 36° NNE
CSL-04 Debris 4.4 15:55:52 10° S 16:01:18 72° WSW 16:06:45 10° NNW
NOSS 3-4 (C) 4.2 15:55:17 10° W 16:01:21 47° NNW 16:03:24 36° NNE
Cosmos 1023 Rocket 4.3 15:57:01 10° SSW 16:02:06 73° ESE 16:02:10 73° ESE
Cosmos 2315 Rocket 4.0 15:57:03 10° N 16:03:20 59° ENE 16:04:10 54° ESE
Cosmos 407 Rocket 3.4 15:58:53 10° SSW 16:04:08 86° WNW 16:05:17 56° NNE
MOS 1 4.5 16:08:00 52° NNE 16:08:00 52° NNE 16:12:50 10° NNW
Cosmos 883 Rocket 4.4 16:01:37 10° N 16:08:00 74° ENE 16:14:17 10° SSE
Okean 2 Rocket 3.7 16:05:10 10° NNW 16:09:33 55° W 16:13:57 10° S
Cosmos 2208 Rocket 4.4 16:07:01 10° NNW 16:11:28 52° NNE 16:11:28 52° NNE
COSMOS 2428 4.3 16:09:49 10° W 16:14:43 28° NNW 16:17:05 22° N
H-2A R/B 4.0 16:20:03 17° N 16:20:03 17° N 16:21:11 10° N
Cosmos 2221 Rocket 4.3 16:13:19 10° SSW 16:16:34 48° SSW 16:16:34 48° SSW
IRS-1A Rocket 4.2 16:18:59 59° SSE 16:20:11 82° ENE 16:26:09 10° NNW
COSMOS 2455 4.1 16:19:55 10° NW 16:25:03 28° N 16:25:17 28° N
USA 116 4.4 16:27:35 79° WSW 16:27:35 79° WSW 16:32:28 10° SSW
Cosmos 1570 Rocket 4.4 16:23:02 10° NNW 16:27:07 54° NNW 16:27:07 54° NNW
Meteor 2-8 Rocket 4.3 16:24:17 10° NNW 16:30:23 89° E 16:31:05 72° SSE
SeaSat 1 3.3 16:33:09 41° NNW 16:33:09 41° NNW 16:36:23 10° NNW
Cosmos 1655 Rocket 4.0 16:28:53 10° SSW 16:35:11 78° WNW 16:38:32 30° N
Cosmos 2360 Rocket 4.1 16:32:09 10° NW 16:36:02 18° N 16:36:51 18° N
Ariane Rocket 3.5 16:37:50 54° NW 16:37:50 54° NW 16:41:51 10° NNW
ATLAS 2AS CENTAUR R/B 3.4 16:32:15 10° WNW 16:40:00 48° N 16:41:10 45° NNE
Cosmos 2369 Rocket 3.3 16:34:52 10° NW 16:40:07 41° WSW 16:43:44 19° S
Cosmos 1980 Rocket 4.1 16:40:16 10° NNW 16:43:00 19° N 16:43:00 19° N
Cosmos 1656 Rocket 3.9 16:40:01 10° NW 16:44:45 62° WNW 16:44:45 62° WNW
COSMO-SKYMED 1 4.0 16:47:07 36° W 16:47:07 36° W 16:50:29 10° SW
Cosmos 1763 Rocket 4.2 16:41:42 10° NNW 16:45:30 48° NW 16:45:30 48° NW
SL-16 R/B 2.8 16:45:22 10° WSW 16:50:56 52° NW 16:51:11 52° NW
USA 215 3.1 16:51:47 86° NNW 16:51:47 86° NNW 16:58:21 10° W
Lacrosse 5 rocket 3.6 16:48:34 10° W 16:50:16 23° WNW 16:50:16 23° WNW
Lacrosse 5 4.3 16:49:58 10° SSW 16:50:31 13° SSW 16:50:31 13° SSW
Cosmos 2344 4.5 16:47:27 10° NW 16:56:35 68° SW 17:03:37 29° SSE
Cosmos 2237 Rocket 3.7 16:55:01 10° W 16:59:58 29° NNW 17:00:46 28° NNW
Cosmos 2322 Rocket 4.3 17:02:14 10° NW 17:04:50 17° N 17:04:50 17° N
Cosmos 1943 Rocket 4.2 17:01:39 10° NW 17:06:05 24° WSW 17:10:29 10° SSW
Cosmos 2333 Rocket 4.1 17:02:43 10° WNW 17:07:02 21° NNW 17:07:26 21° NNW
Cosmos 2219 Rocket 4.1 17:04:55 10° WNW 17:09:02 20° NNW 17:09:18 20° NNW
SL-16 R/B 4.4 17:12:54 10° NNW 17:15:04 16° NNW 17:15:04 16° NNW
ATLAS 2AS CENTAUR R/B 4.3 18:24:19 10° NW 18:28:35 34° NW 18:28:35 34° NW
